www.pogodaiklimat.ru

Погода и климат >> Архив погоды >> Норвегия >> Juvvasshoe


ПОГОДА в Juvvasshoe

  • Прогноз погоды в Juvvasshoe
  • Монитор погоды в Juvvasshoe
  • Климат города

АРХИВ ПОГОДЫ в Juvvasshoe

Время (UTC), дата Ветер
(напр.,м/с)
 
Видим.   Явления Облачность Т
(С)
Тd
(С)
f
(%)
Тe
(С)
Тes
(С)
Комфортность P
(гПа)
Po
(гПа)
Тmin
(С)
Tmax
(С)
R
(мм)
R24
(мм)
S
(см)
08 15.09 З 12-19
{22}
н/о н/о -3.0 -5.0 86 -13 -13 1006.4 1006.0
07 15.09 ЮЗ 12-19
{21}
н/о н/о -3.7 -4.9 91 -14 -14 1006.7 1007.0
09 15.09 ЮЗ 14-20
{22}
н/о н/о -3.1 -5.2 85 -13 -13 1007.6 1008.0
10 15.09 З 14-21
{23}
н/о н/о -2.8 -4.8 86 -13 -13 1008.0 1008.0
11 15.09 ЮЗ 12-17
{20}
н/о н/о -2.5 -4.8 84 -12 -12 1008.0 1008.0
12 15.09 ЮЗ 12-20
{23}
н/о н/о -2.3 -3.9 89 -12 -12 1008.8 1009.0
14 15.09 ЮЗ 12-17
{23}
н/о н/о -2.8 -4.4 89 -13 -13 1009.9 1010.0
13 15.09 З 12-16
{18}
н/о н/о -2.3 -3.8 89 -12 -12 1009.3 1009.0
15 15.09 З 9-18
{20}
н/о н/о -2.6 -4.0 90 -11 -11 1010.7 905.1
16 15.09 З 11-15
{19}
н/о н/о -2.6 -3.9 91 -12 -12 1011.0 800.7
17 15.09 ЮЗ 12-17
{21}
н/о н/о -2.8 -4.3 89 -13 -13 1011.4 800.9
18 15.09 ЮЗ 11-16
{23}
н/о н/о -3.0 -4.1 92 -13 -13 1011.7 801.0 -4.2 -1.9
20 15.09 З 13-19
{22}
н/о н/о -3.1 -4.8 88 -13 -13 1012.2 801.4
19 15.09 З 14-20
{23}
н/о н/о -3.1 -4.5 90 -14 -14 1011.8 801.1
21 15.09 З 14-19
{23}
н/о н/о -3.2 -4.7 89 -14 -14 1012.6 801.6
22 15.09 ЮЗ 15-25
{25}
н/о н/о -3.6 -4.8 91 -15 -15 1013.3 801.9
23 15.09 З 19-21
{25}
н/о н/о -3.5 -4.6 92 -15 -15 1012.8 801.5
00 16.09 З 18-22
{25}
н/о н/о -3.5 -4.6 92 -15 -15 1012.6 801.4
02 16.09 З 13-19
{19}
н/о н/о -3.3 -4.1 94 -14 -14 1013.8 802.5
01 16.09 З 16-21
{22}
н/о н/о -3.5 -4.7 91 -15 -15 1013.6 802.2
03 16.09 З 9-15
{15}
н/о н/о -3.2 -4.4 91 -12 -12 1014.1 802.8
04 16.09 З 8-14
{14}
н/о н/о -3.3 -4.5 91 -12 -12 1014.2 802.8
05 16.09 ЮЗ 5-12
{12}
н/о н/о -3.5 -5.2 88 -10 -10 1014.4 802.9
06 16.09 Ю 5-9
{22}
н/о н/о -3.0 -5.5 83 -10 -10 1014.3 803.1 -4.0 -2.8
08 16.09 Ю 2-5
{6}
н/о н/о -3.2 -5.4 85 -7 -7 1014.4 803.0
07 16.09 С 1-9
{9}
н/о н/о -3.3 -5.9 82 -6 -6 1014.1 802.8
09 16.09 Ю 6-5
{8}
н/о н/о -2.5 -5.8 78 -10 -10 1013.3 802.7
10 16.09 ЮВ 6-7
{7}
н/о н/о -1.7 -4.5 81 -9 -9 1011.8 802.0
11 16.09 ЮВ 6-8
{9}
н/о н/о -1.9 -3.3 90 -9 -9 1011.2 801.4
12 16.09 З 2-7
{9}
н/о н/о -1.1 -4.8 76 -5 -5 1010.3 801.0
14 16.09 Ю 9-11
{11}
н/о н/о -1.0 -1.5 96 -9 -9 1007.2 1007.0
13 16.09 Ю 7-5
{9}
н/о н/о -1.0 -2.3 91 -8 -8 1008.8 800.0
15 16.09 Ю 11-13
{15}
н/о н/о -0.7 -1.1 97 -10 -10 1004.9 900.7
16 16.09 Ю 12-13
{20}
н/о н/о +0.7 -0.9 89 -8 -8 1002.3 1002.0
17 16.09 Ю 14-17
{22}
н/о н/о +1.0 -1.0 86 -8 -8 1001.8 1002.0
18 16.09 ЮЗ 16-19
{22}
н/о н/о +1.1 -1.0 86 -8 -8 1000.6 1001.0 -4.2 +2.1
20 16.09 ЮЗ 10-19
{22}
н/о н/о +0.7 -0.9 89 -7 -7 1001.4 1001.0
19 16.09 Ю 12-17
{20}
н/о н/о +1.2 -0.8 87 -7 -7 1000.6 1001.0
21 16.09 ЮЗ 14-22
{26}
н/о н/о +0.3 -0.9 92 -9 -9 1001.0 1001.0
22 16.09 ЮЗ 16-22
{29}
н/о н/о +0.1 -1.5 89 -10 -10 1000.8 1001.0
23 16.09 ЮЗ 16-21
{29}
н/о н/о -0.2 -1.1 94 -10 -10 1000.8 1001.0
00 17.09 ЮЗ 18-24
{32}
н/о н/о -0.9 -1.8 94 -12 -12 1000.9 1001.0
02 17.09 З 11-18
{24}
н/о н/о -1.3 -3.1 88 -10 -10 1003.1 1003.0
01 17.09 ЮЗ 9-30
{30}
н/о н/о -1.0 -2.8 88 -9 -9 1002.8 1003.0
03 17.09 З 9-17
{17}
н/о н/о -2.1 -7.0 69 -10 -10 1004.5 1005.0
04 17.09 З 9-17
{19}
н/о н/о -2.7 -4.3 89 -11 -11 1005.6 1006.0
05 17.09 ЮЗ 10-13
{18}
н/о н/о -2.8 -4.8 86 -12 -12 1006.2 1006.0
06 17.09 З 12-17
{30}
н/о н/о -2.5 -4.3 87 -12 -12 1005.9 1006.0 -3.2 +1.3
08 17.09 З 13-20
{20}
н/о н/о -2.6 -3.1 96 -13 -13 1007.1 1007.0
07 17.09 З 14-18
{20}
н/о н/о -2.6 -3.7 92 -13 -13 1006.1 1006.0
09 17.09 З 11-20
{22}
н/о н/о -1.4 -3.0 89 -10 -10 1006.7 1007.0
10 17.09 ЮЗ 11-19
{23}
н/о н/о -1.4 -3.6 85 -10 -10 1007.2 1007.0
11 17.09 ЮЗ 11-21
{21}
н/о н/о -0.9 -3.4 83 -10 -10 1007.2 1007.0
12 17.09 ЮЗ 8-18
{23}
н/о н/о -0.1 -3.2 80 -8 -8 1007.3 1007.0
14 17.09 ЮЗ 11-24
{24}
н/о н/о -0.2 -2.2 86 -9 -9 1007.4 1007.0
13 17.09 ЮЗ 12-19
{24}
н/о н/о +0.3 -3.0 78 -8 -8 1007.0 1007.0
15 17.09 ЮЗ 17-26
{30}
н/о н/о +0.7 -2.5 79 -9 -9 1006.2 1006.0
16 17.09 ЮЗ 11-25
{30}
н/о н/о +1.0 -2.1 80 -7 -7 1005.9 1006.0
17 17.09 ЮЗ 10-19
{27}
н/о н/о +0.9 -1.5 84 -7 -7 1006.6 1007.0
18 17.09 ЮЗ 11-12
{30}
н/о н/о +0.6 -1.5 86 -8 -8 1006.9 1007.0 -2.7 +1.0
20 17.09 ЮЗ 6-14
{15}
н/о н/о +0.8 -1.1 87 -6 -6 1006.9 1007.0
19 17.09 ЮЗ 10-20
{21}
н/о н/о +0.8 -1.4 85 -7 -7 1006.7 1007.0
21 17.09 ЮЗ 8-12
{14}
н/о н/о +1.2 -1.4 83 -6 -6 1006.3 1006.0
22 17.09 ЮЗ 10-17
{20}
н/о н/о +1.3 -0.8 86 -6 -6 1005.6 1006.0
23 17.09 ЮЗ 12-19
{22}
н/о н/о +1.5 -0.8 85 -7 -7 1004.8 1005.0
00 18.09 ЮЗ 13-22
{24}
н/о н/о +1.4 -1.2 83 -7 -7 1003.8 1004.0
02 18.09 ЮЗ 14-12
{25}
н/о н/о +2.8 +0.8 87 -6 -6 1001.6 1002.0
01 18.09 ЮЗ 8-17
{19}
н/о н/о +0.8 -0.9 88 -7 -7 1004.9 1005.0
03 18.09 ЮЗ 18-24
{30}
н/о н/о +4.3 +2.1 86 -4 -4 999.3 999.0
04 18.09 ЮЗ 20-26
{31}
н/о н/о +5.2 +2.7 84 -3 -3 997.9 998.0
05 18.09 ЮЗ 20-32
{34}
н/о н/о +5.3 +2.9 84 -3 -3 997.4 997.0
06 18.09 ЮЗ 18-30
{34}
н/о н/о +5.3 +3.0 85 -3 -3 997.5 998.0 +0.5 +5.8
08 18.09 ЮЗ 24-31
{38}
н/о н/о +6.5 +4.0 84 -2 -2 994.9 995.0
07 18.09 ЮЗ 21-27
{30}
н/о н/о +5.5 +3.7 88 -3 -3 996.6 997.0
09 18.09 ЮЗ 23-39
{39}
н/о н/о +7.0 +3.4 78 -1 -1 995.8 996.0
10 18.09 ЮЗ 19-30
{32}
н/о н/о +7.4 +2.9 73 0 0 996.3 996.0
11 18.09 ЮЗ 22-24
{28}
н/о н/о +7.9 0.0 57 +1 +1 995.3 995.0
12 18.09 ЮЗ 17-28
{39}
н/о н/о +8.6 -1.0 51 +3 +3 995.5 996.0
14 18.09 ЮЗ 20-25
{26}
н/о н/о +7.7 +2.1 68 +1 +1 996.0 996.0
13 18.09 ЮЗ 20-24
{29}
н/о н/о +8.7 -1.4 49 +3 +3 995.3 995.0
15 18.09 ЮЗ 14-26
{26}
н/о н/о +8.0 +2.1 66 +2 +2 996.9 997.0
16 18.09 Ю 8-20
{20}
н/о н/о +7.5 +2.8 72 +3 +3 996.9 997.0
17 18.09 Ю 15-13
{22}
н/о н/о +7.8 +3.1 72 +2 +2 994.3 994.0
18 18.09 Ю 15-23
{29}
н/о н/о +7.6 +2.9 72 +1 +1 992.9 993.0 +5.2 +9.3
20 18.09 Ю 14-22
{24}
н/о н/о +6.3 +4.5 88 -1 -1 992.7 993.0
19 18.09 Ю 18-19
{25}
н/о н/о +6.8 +4.5 85 -1 -1 992.5 993.0
21 18.09 Ю 15-18
{22}
н/о н/о +7.1 +4.8 85 0 0 991.6 992.0
22 18.09 ЮЗ 15-22
{25}
н/о н/о +7.1 +5.3 88 0 0 992.0 992.0
23 18.09 ЮЗ 16-24
{25}
н/о н/о +7.3 +5.4 88 +1 +1 991.9 992.0
00 19.09 ЮЗ 18-24
{25}
н/о н/о +7.5 +5.0 84 +1 +1 992.0 992.0
02 19.09 ЮЗ 16-29
{29}
н/о н/о +6.4 +3.3 81 -1 -1 994.2 994.0
01 19.09 ЮЗ 17-21
{28}
н/о н/о +6.8 +4.0 82 -0 -0 992.9 993.0
03 19.09 ЮЗ 17-20
{28}
н/о н/о +5.6 +1.3 74 -2 -2 994.7 995.0
04 19.09 ЮЗ 11 н/о н/о +4.8 +2.6 86 -2 -2 996.0 996.0
05 19.09 ЮЗ 14-20
{24}
н/о н/о +4.4 +0.2 74 -3 -3 996.6 997.0
06 19.09 ЮЗ 12-19
{29}
н/о н/о +3.9 +0.8 80 -3 -3 996.7 997.0 +3.6 +7.9
08 19.09 ЮЗ 17-24
{30}
н/о н/о +3.9 +0.2 77 -4 -4 995.4 995.0
07 19.09 ЮЗ 16-21
{27}
н/о н/о +4.2 +0.9 79 -4 -4 996.5 997.0
09 19.09 ЮЗ 20-30
{30}
н/о н/о +3.2 -1.2 73 -6 -6 996.7 997.0
10 19.09 ЮЗ 17-28
{30}
н/о н/о +2.5 +0.3 85 -7 -7 998.6 999.0
11 19.09 Ю 20-24
{30}
н/о н/о +3.1 -0.7 76 -6 -6 996.7 997.0
12 19.09 Ю 18-30
{30}
н/о н/о +3.8 -2.9 62 -4 -4 997.0 997.0
14 19.09 Ю 14-26
{29}
н/о н/о +5.1 -5.7 46 -2 -2 995.2 995.0
13 19.09 Ю 19-25
{28}
н/о н/о +4.1 -5.0 51 -4 -4 996.1 996.0
15 19.09 Ю 14-21
{24}
н/о н/о +4.2 -7.9 41 -3 -3 995.8 996.0
16 19.09 Ю 25-26
{33}
н/о н/о +3.9 -5.2 51 -5 -5 991.0 991.0
17 19.09 Ю 25-30
{36}
н/о н/о +3.2 -2.0 69 -6 -6 987.4 987.0
18 19.09 Ю 23-30
{36}
н/о н/о +2.0 +0.9 92 -8 -8 988.7 989.0 +1.7 +5.5
20 19.09 Ю 25-29
{38}
н/о н/о +3.7 +1.3 84 -6 -6 981.5 982.0
19 19.09 Ю 24-27
{30}
н/о н/о +3.4 +1.9 90 -6 -6 983.7 984.0
06 20.09 ЮЗ 27
{36}
н/о н/о -2.1 -4.7 82 -15 -15 988.0 988.0 -2.6
07 20.09 ЮЗ 29 н/о н/о -2.2 -5.2 80 -15 -15 988.6 989.0
08 20.09 ЮЗ 23 н/о н/о -2.1 -5.1 80 -14 -14 990.6 991.0
09 20.09 Ю 18 н/о н/о -2.6 -4.8 85 -14 -14 991.5 992.0
11 20.09 ЮЗ 22 н/о н/о -2.3 -5.3 80 -14 -14 993.0 993.0
10 20.09 ЮЗ 18 н/о н/о -2.3 -4.6 84 -13 -13 993.1 993.0
12 20.09 ЮЗ 22 н/о н/о -1.7 -4.2 83 -13 -13 992.3 992.0
13 20.09 ЮЗ 29-27
{38}
н/о н/о -1.7 -4.8 79 -14 -14 990.9 991.0
14 20.09 ЮЗ 23-34
{38}
н/о н/о -3.0 -4.1 92 -15 -15 995.1 995.0
15 20.09 ЮЗ 21-36
{36}
н/о н/о -2.4 -5.5 79 -14 -14 995.6 996.0
17 20.09 ЮЗ 25-26
{37}
н/о н/о -2.6 -5.4 81 -15 -15 994.3 994.0
16 20.09 ЮЗ 21-29
{33}
н/о н/о -2.4 -6.2 75 -14 -14 995.8 996.0
18 20.09 ЮЗ 22-34
{38}
н/о н/о -2.1 -5.0 80 -14 -14 995.4 995.0
19 20.09 ЮЗ 26-28
{34}
н/о н/о -1.5 -5.1 76 -14 -14 993.7 994.0
20 20.09 ЮЗ 22-29
{31}
н/о н/о -1.6 -4.5 81 -13 -13 994.9 995.0
21 20.09 ЮЗ 19-24
{27}
н/о н/о -1.2 -3.9 82 -12 -12 996.0 996.0
23 20.09 ЮЗ 21-29
{30}
н/о н/о -1.0 -3.8 81 -12 -12 994.9 995.0
22 20.09 ЮЗ 20-28
{29}
н/о н/о -0.9 -4.1 79 -12 -12 996.2 996.0
00 21.09 ЮЗ 21-27
{34}
н/о н/о -0.9 -3.8 81 -12 -12 995.4 995.0
01 21.09 ЮЗ 10-25
{27}
н/о н/о -0.9 -4.0 79 -9 -9 996.7 997.0
02 21.09 ЮВ 4-18
{18}
н/о н/о -2.3 -3.0 95 -8 -8 998.3 998.0
03 21.09 штиль 14-6
{6}
н/о н/о -2.8 -3.5 95 -4 -4 997.6 998.0
05 21.09 Ю 4-1
{6}
н/о н/о -3.0 -3.7 95 -9 -9 995.7 996.0
04 21.09 З 1-3
{3}
н/о н/о -3.1 -3.7 96 -6 -6 996.9 997.0
06 21.09 ЮВ 7-5
{27}
н/о н/о -2.9 -3.5 96 -11 -11 994.3 994.0 -3.3 -0.6
07 21.09 ЮВ 10-8
{12}
н/о н/о -3.3 -3.3 100 -13 -13 992.5 993.0
08 21.09 ЮВ 11-14
{14}
н/о н/о -3.6 -3.6 100 -13 -13 990.8 991.0
09 21.09 ЮВ 10-13
{13}
н/о н/о -3.7 -3.8 99 -13 -13 989.2 989.0
11 21.09 Ю 20-19
{27}
н/о н/о +0.9 +0.9 100 -10 -10 980.2 980.0
10 21.09 ЮВ 12-12
{16}
н/о н/о -3.0 -3.0 100 -13 -13 986.5 987.0
12 21.09 Ю 13-24
{27}
н/о н/о +1.2 +1.0 99 -8 -8 981.4 981.0
13 21.09 Ю 11-14
{22}
н/о н/о +0.1 +0.1 100 -9 -9 980.8 981.0
14 21.09 Ю 13-12
{15}
н/о н/о +2.1 +1.7 97 -6 -6 977.5 978.0
15 21.09 Ю 14-14
{21}
н/о н/о +1.4 +0.1 91 -8 -8 976.2 976.0
17 21.09 Ю 14-19
{21}
н/о н/о -0.7 -1.0 98 -11 -11 975.0 975.0
16 21.09 Ю 15-18
{20}
н/о н/о +0.5 -1.1 89 -9 -9 975.0 975.0
18 21.09 Ю 12-14
{22}
н/о н/о -1.3 -1.4 99 -11 -11 974.8 975.0 -3.8 +2.2
19 21.09 Ю 6-17
{17}
н/о н/о -1.4 -1.4 100 -9 -9 975.8 976.0
20 21.09 Ю 4-8
{8}
н/о н/о -2.0 -6 -6 976.2 976.0
21 21.09 СЗ 1-5
{5}
н/о н/о -2.1 -3 -3 976.4 976.0
23 21.09 З 16-14
{18}
н/о н/о -2.9 -12 -12 978.4 978.0
22 21.09 З 9-3
{14}
н/о н/о -2.1 -2.1 100 -11 -11 976.7 977.0
00 22.09 З 19-19
{23}
н/о н/о -3.8 -3.8 100 -16 -16 979.9 980.0
01 22.09 З 20-21
{24}
н/о н/о -4.5 -4.6 99 -17 -17 981.5 982.0
02 22.09 З 22-25
{26}
н/о н/о -3.6 -3.9 98 -16 -16 981.3 981.0
03 22.09 З 25-28
{30}
н/о н/о -3.3 -3.5 99 -16 -16 980.7 981.0
05 22.09 З 23-27
{27}
н/о н/о -3.6 -3.7 99 -16 -16 983.0 983.0

 

Местоположение метеостанции Juvvasshoe (Норвегия): широта 61.68 долгота 8.37 высота над уровнем моря 1894 м.

В архиве по умолчанию представлена погода в Juvvasshoe за последнюю неделю. Архивные данные за месяц целиком и за предыдущие месяцы, начиная с января 2011 года, Вы можете получить, выбрав интересующий диапазон дат из раскрывающегося списка и нажав кнопку "Ввод!".


*Определитесь, кто Вы:
робот инопланетянин человек

Внимание! Время в таблицах - всемирное. Для получения местного времени необходимо прибавить поправку, которая в Juvvasshoe равна 1 ч.

Смотрите также архив погоды в соседних городах и на ближайших метеорологических станциях:

Погода в Sognefjellhytta (Норвегия) (23 км)
Погода в Brata (Норвегия) (36 км)
Погода в Grotli III (Норвегия) (53 км)
Погода в Beitostolen II (Норвегия) (56 км)
Погода в Skabu (Норвегия) (57 км)
Погода в Filefjell-Kyrkjestolane (Норвегия) (57 км)
Погода в Dombas-Nordigard (Норвегия) (59 км)
Погода в Bjorli (Норвегия) (65 км)
Погода в Fokstugu (Норвегия) (68 км)
Погода в Loken i Volbu (Норвегия) (72 км)

Пояснения к столбцам:

Ветер - указаны скорость ветра в м/с - средняя за 10 мин, порывы в срок и между сроками (в фигурных скобках) и направление, откуда дует ветер: С - северный, СВ - северо-восточный, В - восточный, ЮВ - юго-восточный, Ю - южный, ЮЗ - юго-западный, З - западный, СЗ - северо-западный.
Видимость - горизонтальная дальность видимости в метрах или километрах. При видимости от 1 до 10 км при отсутствии осадков обычно наблюдается дымка, при ухудшении видимости до 1 км и менее - туман. В сухую погоду видимость может ухудшаться дымом, пылью или мглою.
Явления - указаны атмосферные явления, наблюдавшиеся в срок или в последний час перед сроком; фигурными скобками обозначены явления, наблюдавшиеся между сроками (за 1-3 часа до срока); квадратными скобками обозначены град или гололедные отложения с указанием их диаметра в мм.
Облачность - указаны через наклонную черту общая и нижняя облачность в баллах и высота нижней границы облаков в метрах; квадратными скобками обозначены формы облаков: Ci - перистые, Cs - перисто-слоистые, Cc - перисто-кучевые, Ac - высококучевые, As - высокослоистые, Sc - слоисто-кучевые, Ns - слоисто-дождевые, Cu - кучевые, Cb - кучево-дождевые. Подробнее классификацию облаков см. в Атласе облаков (PDF).
T - Температура воздуха - температура, измеренная на высоте 2 м над землей.
Td - Температура точки росы - температура, при понижении до которой содержащийся в воздухе водяной пар достигнет насыщения.
f - Относительная влажность воздуха - влажноcть воздуха, измеренная на высоте 2 м над землей.
Te - Эффективная температура - температура, которую ощущает одетый по сезону человек в тени. Характеристика душности погоды. При расчете учитывается влияние влажности воздуха и скорости ветра на теплоощущения человека.
Tes - Эффективная температура на солнце - температура, которую ощущает человек, с поправкой на солнечный нагрев. Характеристика знойности погоды. Зависит от высоты солнца над горизонтом, облачности и скорости ветра. Ночью, в пасмурную погоду, а также при ветре 12 м/с и более поправка равна нулю.
P - Атмосферное давление - приведенное к уровню моря атмосферное давление.
Po - Атмосферное давление - измеренное на уровне метеостанции атмосферное давление.
Tmin - Минимальная температура - минимум температуры воздуха на высоте 2 м над землей.
Tmax - Максимальная температура - максимум температуры воздуха на высоте 2 м над землей.
R - Количество осадков - Количество выпавших осадков за период времени, мм. При наведении курсора мыши на число - период времени, за который выпало указанное количество осадков.
R24 - Количество осадков - Количество выпавших осадков за 24 часа, мм.
S - Снежный покров - Высота снежного покрова, см. При наведении курсора мыши на число - состояние снежного покрова и степень покрытия местности в баллах.